Location: Newark
(15.4608°S, 41.1635°W)
Time: 09:37:53
(UTC+00:00)

Envisat - Pass Details

Date: 13 December 2019
Orbit: 764 x 766 km, 98.1° (Epoch: 26 January)

Event Time Altitude Azimuth Distance (km) Brightness Sun altitude
Rises 22:07:33 0° 190° (S) 3,245 6.8 -13.3°
Reaches altitude 10° 22:10:18 10° 204° (SSW) 2,314 6.3 -13.8°
Maximum altitude 22:14:11 22° 254° (WSW) 1,615 5.6 -14.6°
Drops below altitude 10° 22:18:04 10° 304° (NW) 2,298 5.8 -15.5°
Sets 22:20:48 0° 319° (NW) 3,218 6.4 -16.0°
